FW0734 Weather Reports


time (UTC)temp
C
wind
direction
speed
KPH
gust
KPH
rain 1hr
cm
rain 24hr
cm
rain mn
cm
humidity
%
barometer
mb
20260505224003 13 202 3.2 8.0 0.00 0.00 0.00 79 1019.2
20260505223502 13 202 3.2 8.0 0.00 0.00 0.00 80 1019.2
20260505223002 13 202 1.6 6.4 0.00 0.00 0.00 80 1019.2
20260505222502 13 202 1.6 6.4 0.00 0.00 0.00 80 1019.1
20260505222003 13 202 1.6 6.4 0.00 0.00 0.00 80 1019.1
20260505221523 13 202 1.6 6.4 0.00 0.00 0.00 81 1019.1
20260505221023 13 202 1.6 6.4 0.00 0.00 0.00 81 1019.2
20260505220503 12 201 1.6 11.3 0.00 0.00 0.00 80 1019.2
20260505220003 12 198 3.2 11.3 0.00 0.00 0.00 81 1019.2
20260505215503 12 196 3.2 8.0 0.00 0.00 0.00 82 1019.2
20260505215002 12 196 3.2 8.0 0.00 0.00 0.00 83 1019.2
20260505214502 12 195 1.6 4.8 0.00 0.00 0.00 83 1019.2
20260505214002 12 195 1.6 6.4 0.00 0.00 0.00 83 1019.2
20260505213503 12 195 1.6 6.4 0.00 0.00 0.00 83 1019.2
20260505213002 11 195 3.2 6.4 0.00 0.00 0.00 83 1019.2
20260505212502 11 195 3.2 6.4 0.00 0.00 0.00 83 1019.1
20260505212024 11 194 3.2 6.4 0.00 0.00 0.00 83 1019.1
20260505211502 11 193 3.2 6.4 0.00 0.00 0.00 84 1019.1
20260505211002 11 193 1.6 6.4 0.00 0.00 0.00 85 1019.1
20260505210502 11 193 1.6 6.4 0.00 0.00 0.00 85 1019.0
20260505210002 11 0 0.0 0.0 0.00 0.00 0.00 85 1019.0
20260505205503 11 0 0.0 0.0 0.00 0.00 0.00 85 1019.0
20260505205003 11 0 0.0 0.0 0.00 0.00 0.00 84 1019.0
20260505204503 11 193 0.0 4.8 0.00 0.00 0.00 84 1018.9
20260505204002 11 193 1.6 4.8 0.00 0.00 0.00 84 1018.9
20260505203502 11 193 1.6 4.8 0.00 0.00 0.00 84 1018.9
20260505203002 11 193 3.2 6.4 0.00 0.00 0.00 84 1018.9
20260505202502 11 193 1.6 6.4 0.00 0.00 0.00 85 1018.9
20260505202024 11 193 0.0 4.8 0.00 0.00 0.00 84 1018.9
20260505201502 11 0 0.0 0.0 0.00 0.00 0.00 84 1018.9
20260505201003 11 0 0.0 0.0 0.00 0.00 0.00 84 1018.9
20260505200503 11 193 0.0 3.2 0.00 0.00 0.00 84 1018.8
20260505200002 11 193 0.0 3.2 0.00 0.00 0.00 84 1018.8
20260505195502 11 193 0.0 3.2 0.00 0.00 0.00 83 1018.7
20260505195002 11 0 0.0 0.0 0.00 0.00 0.00 83 1018.7
20260505194503 11 0 0.0 0.0 0.00 0.00 0.00 83 1018.7
20260505194003 11 0 0.0 0.0 0.00 0.00 0.00 83 1018.7
20260505193502 11 0 0.0 0.0 0.00 0.00 0.00 83 1018.6
20260505193003 11 0 0.0 0.0 0.00 0.00 0.00 82 1018.7
20260505192503 11 0 0.0 0.0 0.00 0.00 0.00 83 1018.6
20260505192002 11 0 0.0 0.0 0.00 0.00 0.00 82 1018.7
20260505191503 11 0 0.0 0.0 0.00 0.00 0.00 82 1018.6
20260505191024 11 0 0.0 0.0 0.00 0.00 0.00 82 1018.6
20260505190524 11 193 0.0 3.2 0.00 0.00 0.00 81 1018.7
20260505190003 11 193 1.6 3.2 0.00 0.00 0.00 81 1018.7
20260505185503 11 193 1.6 3.2 0.00 0.00 0.00 81 1018.6
20260505185003 12 193 1.6 4.8 0.00 0.00 0.00 81 1018.6
20260505184502 12 193 1.6 4.8 0.00 0.00 0.00 81 1018.6
20260505184003 12 193 1.6 4.8 0.00 0.00 0.00 80 1018.6
20260505183503 12 193 1.6 6.4 0.00 0.00 0.00 80 1018.5
20260505183002 12 193 3.2 6.4 0.00 0.00 0.00 80 1018.6
20260505182503 12 193 1.6 6.4 0.00 0.00 0.00 80 1018.5
20260505182003 12 193 1.6 6.4 0.00 0.00 0.00 80 1018.6
20260505181503 12 193 3.2 6.4 0.00 0.00 0.00 80 1018.5
20260505181003 12 193 3.2 8.0 0.00 0.03 0.00 79 1018.5
20260505180503 12 193 3.2 8.0 0.00 0.03 0.00 79 1018.6
20260505180003 12 193 3.2 6.4 0.00 0.03 0.00 79 1018.6
20260505175524 12 193 3.2 6.4 0.00 0.03 0.00 79 1018.6
20260505175003 12 193 3.2 8.0 0.00 0.03 0.00 79 1018.5
20260505174503 12 193 3.2 8.0 0.00 0.03 0.00 79 1018.5
20260505174003 12 193 3.2 8.0 0.00 0.03 0.00 78 1018.5
20260505173503 12 193 3.2 8.0 0.00 0.03 0.00 78 1018.6
20260505173003 12 193 3.2 8.0 0.00 0.03 0.00 78 1018.6
20260505172503 12 193 1.6 6.4 0.00 0.03 0.00 78 1018.6
20260505172024 12 193 1.6 6.4 0.00 0.03 0.00 78 1018.6
20260505171503 12 193 1.6 6.4 0.00 0.03 0.00 78 1018.7
20260505171003 12 193 1.6 6.4 0.00 0.03 0.00 77 1018.7
20260505170503 13 193 1.6 6.4 0.00 0.03 0.00 77 1018.7
20260505170003 13 193 3.2 4.8 0.00 0.03 0.00 77 1018.8
20260505165503 13 193 3.2 8.0 0.00 0.03 0.00 76 1018.8
20260505165003 13 193 3.2 8.0 0.00 0.03 0.00 76 1018.9
20260505164503 13 193 3.2 8.0 0.00 0.03 0.00 76 1018.8
20260505164024 13 193 3.2 8.0 0.00 0.03 0.00 76 1018.8
20260505163503 13 193 3.2 12.9 0.00 0.03 0.00 75 1018.9
20260505163003 13 194 4.8 12.9 0.00 0.03 0.00 75 1018.9
20260505162503 13 194 4.8 8.0 0.00 0.03 0.00 75 1018.9
20260505162003 13 194 4.8 14.5 0.00 0.03 0.00 75 1018.9
20260505161503 13 193 4.8 14.5 0.00 0.03 0.00 76 1018.9
20260505161003 13 191 3.2 8.0 0.00 0.03 0.00 76 1019.0
20260505160503 13 191 3.2 8.0 0.00 0.03 0.00 76 1019.0
20260505153024 13 191 4.8 11.3 0.00 0.03 0.00 76 1019.3
20260505152503 13 191 4.8 11.3 0.00 0.03 0.00 76 1019.3
20260505152003 13 190 3.2 8.0 0.00 0.03 0.00 76 1019.4
20260505151503 13 190 4.8 8.0 0.00 0.03 0.00 76 1019.4
20260505151003 13 190 4.8 8.0 0.00 0.03 0.00 76 1019.4
20260505150503 13 190 4.8 8.0 0.00 0.03 0.00 76 1019.5
20260505140503 14 185 3.2 6.4 0.00 0.05 0.00 76 1019.6
20260505125003 13 0 0.0 0.0 0.00 0.05 0.05 80 1019.7
20260505124524 13 0 0.0 0.0 0.00 0.05 0.05 80 1019.7
20260505124003 13 0 0.0 0.0 0.00 0.05 0.05 80 1019.7
20260505123503 13 0 0.0 0.0 0.00 0.05 0.05 80 1019.7
20260505123003 14 0 0.0 0.0 0.00 0.05 0.05 80 1019.7
20260505122503 14 0 0.0 0.0 0.00 0.05 0.05 79 1019.7
20260505122003 14 185 0.0 4.8 0.00 0.05 0.05 79 1019.8
20260505121503 14 185 0.0 4.8 0.00 0.05 0.05 79 1019.8
20260505121003 14 185 0.0 4.8 0.00 0.05 0.05 78 1019.8
20260505120503 14 185 1.6 4.8 0.00 0.05 0.05 78 1019.8
20260505120024 15 185 3.2 8.0 0.00 0.05 0.05 78 1019.8
20260505115503 15 185 3.2 8.0 0.00 0.05 0.05 78 1019.7
20260505115003 15 185 3.2 6.4 0.00 0.05 0.05 78 1019.7
20260505114503 15 185 3.2 6.4 0.00 0.05 0.05 78 1019.7
20260505114003 15 185 3.2 4.8 0.00 0.05 0.05 78 1019.6
20260505113503 15 185 1.6 4.8 0.00 0.05 0.05 78 1019.5
20260505113003 15 185 0.0 4.8 0.00 0.05 0.05 78 1019.6
20260505112503 15 0 0.0 0.0 0.00 0.05 0.05 78 1019.5
20260505112003 15 185 0.0 3.2 0.00 0.05 0.05 78 1019.4
20260505111503 15 185 1.6 3.2 0.00 0.05 0.05 78 1019.4
20260505111003 15 185 1.6 3.2 0.00 0.05 0.05 78 1019.4
20260505110503 15 0 0.0 0.0 0.00 0.05 0.05 77 1019.4
20260505102024 15 0 0.0 0.0 0.00 0.05 0.05 77 1019.1
20260505101503 15 0 0.0 0.0 0.00 0.05 0.05 77 1019.1
20260505101003 15 0 0.0 0.0 0.00 0.05 0.05 77 1019.0
20260505100503 15 0 0.0 0.0 0.00 0.05 0.05 76 1019.0
20260505100003 15 0 0.0 0.0 0.00 0.05 0.05 76 1019.0
20260505095503 15 0 0.0 0.0 0.00 0.05 0.05 76 1019.0
20260505095003 15 0 0.0 0.0 0.00 0.05 0.05 76 1019.0
20260505094503 16 185 0.0 3.2 0.00 0.05 0.05 75 1019.0
20260505094003 16 185 0.0 3.2 0.00 0.05 0.05 75 1018.9
20260505093503 16 185 0.0 1.6 0.00 0.05 0.05 75 1018.8
20260505093003 16 185 0.0 1.6 0.00 0.05 0.05 74 1018.7
20260505092503 16 185 0.0 1.6 0.00 0.05 0.05 75 1018.7
20260505092003 16 0 0.0 0.0 0.00 0.05 0.05 74 1018.6
20260505091503 16 185 0.0 3.2 0.00 0.05 0.05 74 1018.5
20260505091003 16 185 1.6 6.4 0.00 0.05 0.05 74 1018.4
20260505090503 16 185 1.6 6.4 0.00 0.05 0.05 74 1018.4
20260505090003 16 185 1.6 4.8 0.00 0.05 0.05 74 1018.3
20260505085503 16 185 1.6 4.8 0.00 0.05 0.05 74 1018.1
20260505085003 16 185 0.0 4.8 0.00 0.05 0.05 75 1018.1
20260505084524 16 185 1.6 4.8 0.00 0.05 0.05 75 1018.0
20260505084003 16 185 0.0 4.8 0.00 0.05 0.05 75 1018.0
20260505083503 16 185 1.6 4.8 0.00 0.05 0.05 75 1017.9
20260505083003 16 185 0.0 4.8 0.00 0.05 0.05 74 1017.8
20260505082503 16 0 0.0 0.0 0.00 0.05 0.05 73 1017.7
20260505082024 16 185 0.0 3.2 0.00 0.05 0.05 72 1017.7
20260505081503 16 185 1.6 4.8 0.00 0.05 0.05 71 1017.7
20260505081003 17 185 1.6 4.8 0.00 0.05 0.05 70 1017.7
20260505080503 17 185 0.0 3.2 0.00 0.05 0.05 68 1017.7
20260505080024 17 185 0.0 3.2 0.00 0.05 0.05 66 1017.5
20260505075503 17 185 1.6 4.8 0.00 0.05 0.05 65 1017.4
20260505075003 17 185 1.6 4.8 0.00 0.05 0.05 64 1017.4
20260505074503 17 185 0.0 4.8 0.00 0.05 0.05 63 1017.3
20260505074003 17 185 0.0 3.2 0.00 0.05 0.05 61 1017.2
20260505073503 18 185 1.6 3.2 0.00 0.05 0.05 62 1016.9
20260505073003 18 185 1.6 4.8 0.00 0.05 0.05 61 1016.8
20260505072503 18 185 0.0 4.8 0.00 0.05 0.05 61 1016.8
20260505072003 18 185 0.0 3.2 0.00 0.05 0.05 61 1016.7
20260505071524 18 185 0.0 4.8 0.00 0.05 0.05 60 1016.6
20260505071003 18 185 0.0 4.8 0.00 0.05 0.05 60 1016.4
20260505070503 18 185 0.0 4.8 0.00 0.05 0.05 59 1016.5
20260505070003 19 185 0.0 4.8 0.00 0.05 0.05 59 1016.5
20260505065503 19 0 0.0 0.0 0.00 0.05 0.05 58 1016.5
20260505065003 20 185 0.0 4.8 0.00 0.05 0.05 58 1016.5
20260505064503 20 185 0.0 4.8 0.00 0.05 0.05 57 1016.3
20260505064003 20 185 1.6 8.0 0.00 0.05 0.05 56 1016.3
20260505063503 20 185 3.2 8.0 0.00 0.05 0.05 55 1016.2
20260505063003 20 185 3.2 8.0 0.00 0.05 0.05 56 1016.0
20260505062524 20 185 1.6 8.0 0.00 0.05 0.05 56 1016.0
20260505062003 20 185 1.6 8.0 0.00 0.05 0.05 55 1016.1
20260505061503 20 185 3.2 8.0 0.00 0.05 0.05 55 1016.1
20260505061003 20 185 4.8 12.9 0.00 0.05 0.05 54 1016.1
20260505060503 20 183 4.8 12.9 0.00 0.05 0.05 54 1016.1
20260505060024 20 182 3.2 14.5 0.00 0.05 0.05 53 1015.9
20260505055503 21 181 3.2 14.5 0.00 0.05 0.05 52 1015.8
20260505055003 21 178 3.2 8.0 0.00 0.05 0.05 52 1015.8
20260505054503 21 185 3.2 11.3 0.00 0.05 0.05 53 1015.8
20260505054004 21 196 3.2 11.3 0.00 0.05 0.05 53 1015.7
20260505053503 21 213 1.6 8.0 0.00 0.05 0.05 55 1015.7
20260505053003 21 218 3.2 8.0 0.00 0.05 0.05 54 1015.7
20260505052503 21 202 3.2 12.9 0.00 0.05 0.05 53 1015.7
20260505052003 21 188 4.8 12.9 0.00 0.05 0.05 53 1015.7
20260505051503 21 187 4.8 12.9 0.00 0.05 0.05 52 1015.7
20260505051024 21 192 4.8 12.9 0.00 0.05 0.05 52 1015.8
20260505050503 21 206 3.2 8.0 0.00 0.05 0.05 53 1015.8
20260505041503 22 233 3.2 8.0 0.00 0.05 0.05 54 1015.4
20260505041003 22 242 3.2 8.0 0.00 0.05 0.05 53 1015.4
20260505040503 22 255 3.2 9.7 0.00 0.05 0.05 51 1015.3
20260505040003 22 217 4.8 12.9 0.00 0.05 0.05 53 1015.3
20260505035503 22 196 4.8 14.5 0.00 0.05 0.05 53 1015.2
20260505035003 22 223 4.8 14.5 0.00 0.05 0.05 53 1015.2
20260505034503 22 240 3.2 14.5 0.00 0.05 0.05 53 1015.3
20260505034003 22 223 3.2 9.7 0.00 0.05 0.05 54 1015.3
20260505033503 22 235 3.2 9.7 0.00 0.05 0.05 54 1015.4
20260505033024 22 253 1.6 6.4 0.00 0.05 0.05 55 1015.4
20260505032503 22 216 1.6 8.0 0.00 0.05 0.05 55 1015.5
20260505032003 22 201 3.2 9.7 0.00 0.05 0.05 57 1015.5
20260505031503 21 216 3.2 11.3 0.00 0.05 0.05 57 1015.4
20260505031024 21 234 3.2 12.9 0.00 0.05 0.05 55 1015.7
20260505030503 21 255 3.2 12.9 0.00 0.05 0.05 57 1015.8
20260505030024 21 226 3.2 12.9 0.00 0.05 0.05 58 1015.8
20260505025524 21 227 3.2 12.9 0.00 0.05 0.05 56 1015.8
20260505025003 21 223 3.2 8.0 0.00 0.05 0.05 58 1015.9
20260505024524 21 216 3.2 12.9 0.00 0.05 0.05 58 1015.8
20260505024003 21 260 3.2 12.9 0.00 0.05 0.05 59 1016.0
20260505023503 21 270 3.2 11.3 0.00 0.05 0.05 60 1016.0
20260505023003 21 222 3.2 11.3 0.00 0.05 0.05 60 1016.0
20260505022503 21 200 4.8 14.5 0.00 0.08 0.05 61 1016.1
20260505022024 21 214 4.8 14.5 0.00 0.08 0.05 59 1016.2
20260505021503 20 248 3.2 12.9 0.00 0.08 0.05 61 1016.2
20260505021003 20 245 3.2 12.9 0.00 0.10 0.05 61 1016.3
20260505020503 20 213 3.2 11.3 0.00 0.10 0.05 61 1016.2
20260505020003 20 220 4.8 12.9 0.00 0.10 0.05 61 1016.2
20260505015503 20 226 3.2 12.9 0.00 0.13 0.05 61 1016.3
20260505015003 20 201 3.2 12.9 0.00 0.13 0.05 62 1016.4
20260505014503 20 218 3.2 12.9 0.00 0.15 0.05 61 1016.6
20260505014003 20 246 3.2 12.9 0.00 0.15 0.05 62 1016.6
20260505013503 20 241 3.2 17.7 0.00 0.15 0.05 62 1016.5
20260505013003 20 223 3.2 17.7 0.00 0.15 0.05 63 1016.8
20260505012503 20 250 3.2 14.5 0.00 0.18 0.05 63 1016.9
20260505012003 20 267 3.2 12.9 0.00 0.18 0.05 63 1016.9
20260505011524 20 256 3.2 8.0 0.00 0.18 0.05 61 1016.9
20260505011003 20 279 3.2 11.3 0.00 0.18 0.05 63 1016.9
20260505010503 20 273 3.2 11.3 0.00 0.18 0.05 64 1016.9
20260505010003 20 271 3.2 9.7 0.00 0.18 0.05 65 1017.1
20260505005524 19 229 3.2 12.9 0.00 0.18 0.05 64 1017.1
20260505005004 19 187 4.8 12.9 0.00 0.18 0.05 64 1017.1
20260505004524 19 199 4.8 14.5 0.00 0.18 0.05 64 1017.2
20260505004003 18 223 4.8 14.5 0.00 0.18 0.05 65 1017.3
20260505003503 18 260 3.2 12.9 0.00 0.18 0.05 67 1017.3
20260505003024 18 237 3.2 12.9 0.00 0.18 0.05 67 1017.4
20260505002503 18 224 3.2 12.9 0.00 0.18 0.05 67 1017.5
20260505002003 18 246 3.2 16.1 0.00 0.18 0.05 66 1017.6
20260505001503 18 232 4.8 19.3 0.00 0.18 0.05 66 1017.6
20260505001003 18 204 4.8 19.3 0.00 0.18 0.05 66 1017.5
20260505000503 18 219 3.2 14.5 0.00 0.18 0.05 66 1017.7
20260505000003 18 300 3.2 14.5 0.00 0.18 0.05 67 1017.7
20260504235503 18 312 1.6 6.4 0.00 0.18 0.05 68 1017.7
20260504235003 18 312 1.6 8.0 0.00 0.18 0.05 69 1017.7
20260504234503 17 313 1.6 8.0 0.00 0.18 0.05 69 1017.5
20260504234024 17 314 1.6 8.0 0.00 0.18 0.05 70 1017.7
20260504233503 17 316 1.6 8.0 0.00 0.18 0.05 71 1017.7
20260504233003 17 318 1.6 8.0 0.00 0.18 0.05 72 1017.7
20260504232503 17 323 1.6 8.0 0.00 0.18 0.05 73 1017.5
20260504232003 17 334 1.6 8.0 0.00 0.18 0.05 74 1017.6
20260504231503 16 341 1.6 6.4 0.00 0.18 0.05 75 1017.7
20260504231003 16 345 1.6 8.0 0.00 0.18 0.05 76 1017.7
20260504230503 16 346 1.6 8.0 0.00 0.18 0.05 77 1017.8
20260504230003 15 349 0.0 6.4 0.00 0.18 0.05 81 1017.8
20260504225503 15 349 0.0 6.4 0.00 0.18 0.05 82 1017.8
20260504225003 14 349 1.6 8.0 0.00 0.18 0.05 85 1017.7
20260504224524 14 350 1.6 8.0 0.00 0.18 0.05 86 1017.7